Simultaneous Nadir Overpasses (SNOs) Predictions

Prediction of SNOs between LANDSAT-8 and METOP-B Satellite Orbit:

Table of predicted SNOs for the next 14.0 days since TLE Epoch: 8/3/2024
Index Date (LANDSAT-8) Time (LANDSAT-8) Lat,Lon (LANDSAT-8) SZA (LANDSAT-8 ) Date (METOP-B) Time (METOP-B) Lat,Lon (METOP-B) SZA (METOP-B ) Distance(km) Time Diff (sec)
1 08/05/2024 06:04:15 81.38, 133.50 66.96 08/05/2024 06:04:06 81.38, 133.63 66.97 2.17 9
2 08/05/2024 06:53:41 -81.39, -58.63 113.01 08/05/2024 06:54:46 -81.39, -58.65 112.98 0.73 65
3 08/08/2024 00:49:01 -81.37, 32.01 112.31 08/08/2024 00:47:54 -81.37, 31.88 112.35 2.12 67
4 08/08/2024 01:38:27 81.37,-160.22 67.72 08/08/2024 01:38:33 81.38,-160.13 67.74 1.75 6
5 08/10/2024 20:23:12 -81.38, 98.78 111.44 08/10/2024 20:22:20 -81.38, 98.81 111.46 0.68 52
6 08/10/2024 21:12:38 81.39, -93.49 68.59 08/10/2024 21:13:00 81.38, -93.61 68.58 2.18 22
7 08/13/2024 15:57:23 -81.38, 165.24 110.58 08/13/2024 15:56:47 -81.38, 165.23 110.60 0.31 36
8 08/13/2024 16:46:49 81.38, -27.06 69.44 08/13/2024 16:47:27 81.38, -27.22 69.44 2.59 38
9 08/16/2024 11:31:33 -81.39,-128.23 109.68 08/16/2024 11:31:13 -81.38,-128.09 109.67 2.49 20



Historial Predications of SNOs between LANDSAT-8 and METOP-B
